SCP
2 2 2 1 1 1 1 1 1 1 1 1 1 1 1 0 0 1 1 1 1 1 1 1 1 1 1 1 1 1 1 1 1 1 1 1 0 0 0 1 1 1 1
2 2 2 1 1 1 1 1 1 1 1 1 1 1 1 0 0 1 1 1 1 1 1 1 1 1 1 1 1 1 1 1 1 1 1 1 1 0 0 1 1 1 1
3 2 2 2 2 2 1 1 1 1 1 1 1 1 0 0 0 1 1 1 1 1 1 1 1 1 1 1 1 1 1 1 1 1 1 1 1 1 1 1 1 1 1
3 3 2 2 2 2 2 1 1 1 1 1 1 1 0 0 0 0 1 1 1 1 1 1 1 1 2 2 2 1 1 1 1 1 1 1 1 1 1 1 1 1 1
4 3 2 2 2 2 2 1 1 1 1 1 1 0 0 0 0 0 1 1 1 1 1 1 1 1 1 2 2 1 1 1 1 1 1 1 1 1 1 1 1 1 1
4 4 3 2 2 2 2 1 1 1 1 1 1 0 0 0 0 0 1 0 1 1 1 1 1 1 1 2 2 1 1 1 1 1 1 1 1 1 1 1 1 1 1
3 3 3 2 2 2 2 1 1 1 1 1 0 0 0 0 0 0 0 0 0 0 0 0 1 1 1 1 1 1 1 1 1 1 1 1 1 1 1 1 1 1 1
3 3 2 2 2 2 2 1 1 1 0 0 0 0 0 0 0 0 0 0 0 0 0 0 0 0 1 1 1 1 1 1 1 1 1 1 1 1 1 1 1 1 1
3 3 2 2 2 2 1 1 1 1 1 0 0 0 0 0 0 0 0 0 0 0 0 0 0 0 0 0 0 0 0 1 1 1 1 1 1 1 1 1 1 1 1
3 2 2 2 2 2 1 1 1 1 1 0 0 0 0 0 0 0 0 0 0 0 0 0 0 0 0 0 0 0 0 0 0 1 0 0 0 0 0 1 1 1 1
2 1 2 2 2 1 1 1 1 1 1 0 0 0 0 0 0 0 0 0 0 0 0 0 0 0 0 0 0 0 0 0 0 0 0 0 0 0 0 0 1 1 1
1 1 1 1 1 1 1 1 1 0 0 0 0 0 0 0 0 0 0 0 0 0 0 0 0 0 0 0 0 0 0 0 0 0 0 0 0 0 0 0 1 1 1
0 0 0 0 0 1 1 0 0 0 0 0 0 0 0 0 0 0 0 0 0 0 0 0 0 0 0 0 0 0 0 0 0 0 0 0 0 0 0 0 0 0 0
0 0 0 0 0 0 0 0 0 0 0 0 0 0 0 0 0 0 0 0 0 0 0 0 0 0 0 0 0 0 0 0 0 0 0 0 0 0 0 0 0 0 0
0 0 0 0 0 0 0 0 0 0 0 0 0 0 0 0 0 0 0 0 0 0 0 0 0 0 0 0 0 0 0 0 0 0 0 0 0 0 0 0 0 0 0
0 0 0 0 0 0 0 0 0 0 0 0 0 0 0 0 0 0 0 0 0 0 0 0 0 0 0 0 0 0 0 0 0 0 0 0 0 0 0 0 0 0 0
0 0 0 0 0 0 0 0 0 0 0 0 0 0 0 0 0 0 0 0 0 0 0 0 0 0 0 0 0 0 0 0 0 0 0 0 0 0 0 0 0 0 0
0 0 0 0 0 0 0 0 0 0 0 0 0 0 0 0 0 0 0 0 0 0 0 0 0 0 0 0 0 0 0 0 0 0 0 0 0 0 0 0 0 0 0
0 0 0 0 0 0 0 0 0 0 0 0 0 0 0 0 0 0 0 0 0 0 0 0 0 0 0 0 0 0 0 0 0 0 0 0 0 0 0 0 0 0 0
0 0 0 0 0 0 0 0 0 0 0 0 0 0 0 0 0 0 0 0 0 0 0 0 0 0 0 0 0 0 0 0 0 0 0 0 0 0 0 0 0 0 0
0 0 0 0 0 0 0 0 0 0 0 0 0 0 0 0 0 0 0 0 0 0 0 0 0 0 0 0 0 0 0 0 0 0 0 0 0 0 0 0 0 0 0
0 0 0 0 0 0 0 0 0 0 0 0 0 0 0 0 0 0 0 0 0 0 0 0 0 0 0 0 0 0 0 0 0 0 0 0 0 0 0 0 0 0 -0
0 0 0 0 0 0 0 0 0 0 0 0 0 0 0 0 0 0 0 0 0 0 0 0 0 0 0 0 0 0 0 0 0 0 0 0 0 0 0 0 0 -0 -0
0 0 0 0 0 0 0 0 0 0 0 0 0 0 0 0 0 0 0 0 0 0 0 0 0 0 0 0 0 0 0 0 0 0 0 0 0 0 0 0 0 0 -0
0 0 0 0 0 0 0 0 0 0 0 0 0 0 0 0 0 0 0 0 0 0 0 0 0 0 0 0 0 0 0 0 0 0 0 0 0 0 0 0 0 0 0
0 0 0 0 0 0 0 0 0 0 0 0 0 0 0 0 0 0 0 0 0 0 0 0 0 0 0 0 0 0 0 0 0 0 0 0 0 0 0 0 0 0 0
Wind_Speed
5 5 4 3 4 3 3 3 3 4 3 2 2 2 2 1 1 1 1 2 3 4 4 4 5 6 6 5 5 5 5 5 5 6 6 6 6 6 6 6 6 7 8
5 5 5 4 4 4 4 4 4 4 3 2 1 1 1 0 1 1 1 1 2 3 3 2 2 3 3 3 2 2 2 2 2 2 2 2 2 2 3 3 3 3 3
6 5 5 5 5 5 5 4 4 3 2 2 2 1 2 2 3 3 3 3 4 6 5 5 5 5 4 4 4 5 5 5 4 4 4 3 3 3 3 3 2 2 1
6 5 5 5 5 5 5 4 3 3 3 3 2 2 3 3 4 4 4 5 4 4 6 8 8 7 6 6 7 7 8 8 8 8 8 7 6 5 5 5 5 5 4
7 5 5 5 5 5 4 5 3 3 4 4 4 3 4 4 4 5 6 6 6 6 5 8 12 12 11 10 9 9 9 9 9 9 10 10 9 9 9 8 7 7 6
6 6 5 5 5 4 4 5 5 4 4 5 5 5 5 5 4 5 6 6 6 7 7 7 6 9 14 13 12 11 11 11 11 11 11 11 12 12 11 10 9 9 8
4 5 5 5 5 5 6 7 5 6 5 5 5 4 4 6 6 4 5 5 6 7 7 7 6 5 6 13 14 13 13 13 12 12 12 12 12 11 11 11 11 10 10
2 4 5 4 5 5 6 7 7 5 4 5 4 4 3 2 4 5 4 5 6 6 7 8 7 7 6 5 9 14 13 13 13 12 11 12 12 12 11 11 10 11 10
1 1 2 2 3 4 5 7 8 8 6 5 4 4 5 5 3 3 5 5 5 5 5 6 7 7 7 6 6 12 14 13 13 13 13 13 12 12 12 11 11 11 11
2 2 0 1 2 3 4 6 7 5 7 6 4 2 2 5 5 4 3 4 5 5 5 5 6 6 6 5 7 11 13 13 12 12 12 12 12 12 12 12 11 12 11
3 3 2 1 1 1 2 3 4 5 5 5 4 4 3 3 3 5 5 4 3 4 4 4 4 4 5 5 5 8 12 12 12 11 11 11 11 11 11 11 12 12 12
2 3 3 3 2 2 2 2 3 4 4 4 4 4 4 4 4 4 5 5 4 3 3 3 3 3 3 3 5 9 10 10 9 9 10 10 10 11 11 12 12 12 13
3 4 4 3 3 3 3 3 4 4 4 5 4 3 3 3 4 4 7 6 4 3 2 2 2 2 2 3 3 7 8 8 8 8 8 9 10 10 10 11 11 12 12
3 4 4 4 5 5 4 5 4 5 5 5 5 5 4 3 4 6 6 8 6 3 2 1 1 1 1 2 3 5 4 7 7 7 7 7 8 8 9 9 10 11 11
4 6 5 6 6 6 6 6 6 6 6 6 6 6 5 4 5 5 5 6 7 6 3 1 1 1 1 1 2 2 2 4 5 5 5 5 5 6 7 7 8 9 10
6 7 7 7 7 8 8 8 7 7 9 7 6 8 7 6 6 6 5 4 4 5 5 2 1 1 1 2 3 2 2 3 3 2 2 2 3 4 4 5 6 7 8
8 8 8 8 9 8 7 8 8 8 10 9 8 9 9 8 7 6 6 5 5 5 7 4 2 2 2 3 2 2 2 1 1 2 1 1 1 2 2 3 4 5 6
8 8 9 9 9 9 9 9 10 9 10 10 9 9 9 7 8 7 6 7 6 5 7 7 3 2 3 2 2 2 2 2 1 1 1 1 2 2 2 3 3 3 4
8 9 9 10 9 9 9 9 10 10 10 9 9 9 8 9 9 7 7 7 6 7 6 6 4 2 2 2 2 2 3 2 2 2 2 2 2 3 3 3 2 2 3
9 9 9 9 9 9 9 9 10 10 10 10 9 9 8 8 8 8 8 8 8 8 7 6 4 3 2 2 2 2 2 3 3 3 3 3 3 3 4 3 3 3 3
9 8 9 9 8 8 8 9 9 10 10 11 10 9 9 11 10 7 7 7 8 6 5 5 3 2 2 2 2 2 2 2 1 2 2 2 2 2 2 3 4 3 4
8 9 9 9 9 7 11 13 10 9 9 10 9 9 10 11 13 13 12 10 8 7 5 4 2 2 1 0 0 1 1 1 1 2 2 2 2 2 2 2 4 5 5
8 9 8 9 8 9 12 13 13 9 9 8 8 8 7 8 9 9 11 12 10 8 6 4 3 2 1 1 1 1 1 0 1 2 2 2 2 2 3 3 5 6 6
7 7 7 7 8 8 11 12 13 10 9 8 7 7 7 7 7 7 8 8 6 5 4 2 2 2 2 2 1 0 0 1 2 1 1 2 2 2 3 3 4 5 6
7 6 6 7 7 7 10 11 10 7 8 8 7 7 7 6 7 8 8 7 6 4 4 3 1 1 2 3 3 2 1 1 1 1 0 1 2 3 3 3 3 4 6
6 7 7 7 7 6 8 10 9 6 6 6 6 6 8 7 7 7 6 5 4 3 3 3 4 3 2 2 3 2 1 1 0 1 0 1 1 2 3 2 3 3 4
Wind_Direction
192 189 190 189 190 183 185 188 189 193 199 209 223 226 234 236 222 206 239 233 210 205 208 207 203 205 204 207 214 218 220 223 227 222 219 222 225 227 228 231 233 233 233
193 193 194 195 198 192 193 194 194 197 201 195 210 195 162 101 91 101 102 62 100 127 127 133 160 171 169 173 175 177 181 185 167 162 173 185 199 219 227 228 230 232 232
192 196 198 202 205 196 192 189 192 187 186 163 134 107 85 71 71 72 73 72 72 77 84 88 87 90 96 100 101 98 95 95 93 92 91 90 90 83 82 79 71 60 45
191 196 203 210 202 193 190 187 185 181 166 141 116 87 76 71 67 71 72 68 68 65 68 79 82 78 78 83 87 88 85 82 78 77 76 74 74 75 74 72 67 62 57
195 200 207 207 192 193 190 188 180 176 155 135 115 84 68 65 61 71 73 67 65 65 60 63 68 70 71 73 76 78 80 80 78 77 75 73 72 70 68 66 63 61 56
197 199 206 205 189 188 187 176 171 159 144 131 109 83 66 64 61 65 72 71 68 68 65 62 57 59 64 65 64 69 76 78 75 76 76 73 70 67 64 62 60 55 48
204 204 208 203 193 194 190 174 162 152 146 136 120 103 72 62 63 61 69 74 72 70 69 65 61 56 54 58 60 63 66 70 71 72 73 72 69 66 64 61 59 54 50
228 223 205 201 195 193 186 175 162 156 162 165 144 133 133 103 64 56 65 76 76 73 72 70 69 66 60 55 63 65 64 66 67 68 70 69 66 63 60 57 53 48 45
8 301 234 208 203 197 193 181 175 170 173 182 171 157 159 164 128 73 62 69 76 75 73 71 71 67 65 61 58 61 64 64 67 68 68 66 62 59 55 52 48 43 39
25 19 37 203 199 195 190 183 178 177 169 178 174 174 137 138 145 135 92 72 76 74 70 72 70 64 60 61 63 67 66 63 63 63 62 61 59 55 51 46 43 41 37
38 36 58 83 149 164 170 173 171 174 176 176 166 152 123 111 115 137 142 133 90 65 66 67 67 64 57 58 63 67 66 62 58 57 57 58 55 52 48 44 42 39 36
52 45 58 69 76 84 110 139 150 160 166 163 157 151 151 152 153 138 136 139 122 88 64 57 58 59 53 50 64 66 64 61 58 55 55 55 54 52 49 46 44 41 39
51 43 49 55 63 65 76 91 111 116 127 136 137 133 133 134 137 130 128 131 119 106 85 60 43 48 54 45 52 57 58 55 54 54 54 54 54 53 50 48 45 42 39
51 50 60 64 66 67 75 81 88 94 100 106 104 110 105 104 119 128 135 138 127 108 92 92 41 44 45 42 44 47 46 44 47 48 51 53 54 53 51 49 46 42 37
58 56 60 66 66 66 69 78 77 80 87 85 92 98 98 96 97 103 117 132 134 134 128 147 122 52 52 65 45 45 35 25 39 47 51 54 54 53 52 49 43 39 34
57 65 64 68 68 67 69 76 78 75 79 73 78 82 81 87 91 92 99 93 101 123 125 126 103 63 48 63 61 46 16 7 18 31 52 56 51 46 46 42 36 32 29
60 64 68 69 68 67 69 76 74 76 79 75 74 80 79 81 88 87 88 88 88 101 117 105 73 57 61 57 36 22 12 359 350 1 28 38 22 21 22 22 23 23 23
61 64 68 68 68 67 66 73 77 73 77 77 76 79 79 84 81 82 86 86 86 86 117 116 81 53 52 45 31 22 16 20 356 4 27 26 13 5 355 352 4 12 14
64 63 67 67 67 69 71 72 76 74 72 72 73 79 82 87 84 84 86 89 88 88 91 108 92 60 50 37 35 28 26 15 14 27 25 16 11 9 358 346 344 344 348
66 65 65 66 65 67 71 74 76 76 73 69 68 71 75 85 92 93 91 91 95 93 93 98 92 69 53 31 44 32 21 14 10 9 11 4 4 1 355 349 332 318 314
64 66 68 65 62 64 69 76 76 77 76 71 65 64 72 83 87 90 101 104 103 100 98 96 89 76 52 41 37 9 15 353 9 9 343 358 352 342 340 335 327 316 308
58 63 65 67 63 66 72 75 81 76 74 74 70 64 67 70 74 78 87 96 108 115 115 107 102 100 80 64 27 23 18 17 356 10 343 335 350 325 324 320 318 309 303
61 61 61 67 66 69 76 76 76 77 73 69 68 68 69 65 71 79 77 74 71 83 110 129 129 147 168 185 147 66 61 19 303 335 333 320 336 313 311 312 316 312 306
65 63 61 65 67 66 77 80 78 74 71 64 64 71 76 65 69 83 85 76 67 60 69 106 146 185 208 199 186 157 136 283 282 285 308 317 331 314 311 308 316 322 320
66 62 60 63 67 58 71 83 83 77 70 60 56 59 70 70 70 85 85 79 65 41 44 59 114 189 223 207 177 151 131 35 356 335 6 307 323 317 305 302 317 330 327
75 72 63 56 63 60 69 80 84 84 76 65 54 48 54 65 70 80 86 84 69 28 16 28 39 36 49 83 165 183 183 166 298 299 251 263 317 330 316 301 305 318 326